Погода в Троянове

Украина / Житомирская область     50°06′47″N   28°31′23″E
темп.,
°C
ветер,
м/с
пор.,
м/с
влажн.,
%
обл.,
%
осадки,
мм/ч
давл.,
гПа
погр.,
м
18 мая, вт
вт1800:00+12ююв119099 0.0 100211
03:00+13ююз1194100 1.1 100220
06:00+12ю2394100 0.1 100172
09:00+15ююв2386100 0.2 1001328
12:00+16юв337999 0.9 1000372
15:00+19св226290 2.9 9991109
18:00+18ссз336956 1.0 999581
21:00+13сз3690100 1.6 99997
19 мая, ср
ср1900:00+12сз3796100 0.8 999192
03:00+12сз51098100 3.4 999564
06:00+12сз91597100 13.9 1000760
09:00+11сз91596100 26.2 1003618
12:00+14сз81282100 2.1 1005992
15:00+12с51089100 3.1 1007515
18:00+13ссв4787100 0.5 1008514
21:00+10зюз2292100 0.6 100920
20 мая, чт
чт2000:00+10зсз3596100 0.0 100999
03:00+11сз249689 0.0 1009108
06:00+10ссз1293100 0.0 101060
09:00+12ссз247697 0.0 1010337
12:00+16св236468 0.0 10091159
15:00+17вюв2365100 1.4 10091073
18:00+13ююз4687100 3.6 1010223
21:00+11сз3596100 4.9 1011161
21 мая, пт
пт2100:00+11ссз3797100 0.5 1011242
03:00+11св3698100 0.6 1011247
06:00+10св4898100 0.3 1011381
09:00+11ссв61098100 4.6 1012631
12:00+10ссв61098100 2.9 1014536
15:00+11ссв61197100 4.0 1014527
18:00+10с81395100 3.6 1015615
21:00+10с61395100 7.1 1017553
22 мая, сб
сб2200:00+10с51294100 0.4 1017456
03:00+10с5119291 0.4 1017395
06:00+9с4109256 0.0 1018269
09:00+11с378798 0.0 1018331
12:00+16с457143 0.0 1017982
15:00+18ссв336470 0.0 10161396
18:00+18ссв346862 0.1 1016816
21:00+13с228213 0.1 101711